Location: Newark
(25.0000°N, 73.5000°E)
Time: 00:49:15
(UTC+00:00)

Vanguard 2 Rocket - Visible Passes

Search period start: 31 July 2021 00:00
Search period end: 10 August 2021 00:00
Orbit: 555 x 3325 km, 32.9° (Epoch: 30 July)

Date Brightness Start Highest point End Pass type
(mag) Time Alt. Az. Time Alt. Az. Time Alt. Az.
31 Jul 8.1 23:26:18 12° SSW 23:31:02 25° SSE 23:34:53 10° E visible
01 Aug 8.8 22:30:03 17° SSE 22:31:08 18° SSE 22:34:56 10° ESE visible
02 Aug 9.5 21:33:46 11° SE 21:33:46 11° SE 21:34:10 10° SE visible
02 Aug 7.2 23:39:34 13° SW 23:45:16 46° SSE 23:49:38 10° E visible
03 Aug 8.1 22:43:16 27° S 22:45:31 33° SSE 22:50:19 10° E visible
04 Aug 8.8 21:46:56 23° SE 21:46:56 23° SE 21:50:39 10° E visible
04 Aug 6.7 23:52:44 12° WSW 23:59:25 82° SSE 00:03:55 10° ENE visible
05 Aug 7.3 22:56:21 32° SW 22:59:46 56° SSE 23:04:52 10° ENE visible
06 Aug 8.1 21:59:58 42° SSE 21:59:58 42° SSE 22:05:39 10° E visible
07 Aug 6.9 00:06:25 10° WSW 00:13:30 64° NNW 00:18:00 10° ENE visible
07 Aug 9.2 21:03:33 22° ESE 21:03:33 22° ESE 21:06:05 10° E visible
07 Aug 7.0 23:09:19 28° WSW 23:13:53 88° SSE 23:19:06 10° ENE visible
08 Aug 7.6 22:12:52 59° SSW 22:14:00 65° SSE 22:20:05 10° ENE visible
09 Aug 8.5 21:16:23 39° ESE 21:16:23 39° ESE 21:20:51 10° E visible
09 Aug 7.3 23:22:09 21° W 23:27:59 65° NNW 23:33:10 10° ENE visible
